Theta_e
298 297 297 297 297 297 297 298 298 298 297 297 297 298 298 298 298 298 299 298 299 301 300 299 299 299 299 299 299 298 297 297 297 298 298 298 297 297 297 297 297 297 296 296 296 296 296 296 295 295 294 293 293 293 292 292 292 291 291 291 291 292
297 297 297 297 297 297 297 297 297 297 297 297 297 297 297 297 297 297 297 297 298 299 298 299 299 299 299 299 298 298 298 298 298 298 298 298 298 297 297 297 297 297 296 296 296 295 295 295 295 295 294 294 293 293 292 292 292 292 291 291 292 293
296 296 296 297 297 296 296 297 297 297 297 297 297 297 297 297 297 297 298 298 298 297 298 298 298 298 299 298 299 298 298 298 297 298 298 296 297 298 297 297 297 297 296 296 296 295 295 295 295 295 294 294 293 293 293 292 292 291 292 291 291 292
296 296 296 296 296 296 296 297 297 296 296 297 297 297 297 297 298 298 298 298 299 298 298 298 298 299 298 298 298 298 298 298 298 298 296 296 297 297 297 297 297 297 297 296 296 296 296 295 295 295 294 294 293 293 294 293 292 292 292 291 291 291
296 297 296 296 296 296 296 296 297 297 296 297 296 296 297 297 298 298 298 298 298 298 298 298 298 298 297 297 298 297 298 297 297 296 296 297 297 296 297 297 297 297 296 296 296 296 296 296 295 295 295 294 294 293 293 293 293 292 292 291 291 292
296 296 296 297 296 296 296 296 296 296 296 296 296 296 297 297 297 297 297 297 297 297 297 297 297 297 297 297 297 297 297 297 297 296 297 297 297 297 297 296 297 296 296 296 296 296 296 296 295 295 295 295 294 294 294 293 293 293 293 292 292 292
296 297 296 296 297 296 296 297 297 296 297 296 296 296 296 297 296 296 296 295 296 296 296 296 296 296 296 296 297 297 297 297 297 297 297 297 297 297 297 296 296 296 296 296 296 296 296 296 296 295 295 295 295 295 294 294 293 293 293 293 293 293
296 296 296 296 297 296 297 297 297 297 296 296 296 296 296 297 295 295 295 295 295 295 295 295 295 295 296 296 296 296 297 297 297 297 297 296 297 297 296 296 296 296 296 296 296 296 296 296 295 295 295 295 295 295 294 294 294 294 293 293 293 293
296 296 296 296 296 296 296 296 297 296 296 296 296 296 296 297 295 295 294 295 293 294 294 294 295 295 295 296 296 296 296 296 296 296 296 296 296 296 296 295 296 296 296 297 297 296 296 296 295 295 295 295 295 294 294 294 294 294 294 294 294 294
296 295 295 295 296 296 296 296 297 296 296 296 296 296 296 298 295 294 294 293 293 293 294 294 294 295 295 296 296 296 296 296 295 295 295 294 295 295 295 295 296 296 296 296 296 296 296 295 295 295 295 295 295 294 294 294 294 293 293 293 293 293
294 294 295 295 294 294 294 295 295 295 295 294 294 294 294 294 293 293 293 292 292 293 293 294 294 295 295 294 295 294 294 294 294 294 294 293 294 295 295 295 295 295 295 295 295 295 295 295 296 296 296 295 295 294 294 294 294 293 293 293 293 293
294 293 293 294 294 294 294 294 294 294 294 294 294 294 294 293 292 292 292 292 292 293 293 294 293 294 293 293 293 293 293 293 293 293 292 293 293 293 294 294 294 294 294 294 294 294 295 295 296 294 294 294 295 294 295 294 294 293 293 293 292 293
293 293 292 292 292 292 293 293 294 294 293 293 294 294 293 292 292 292 291 292 292 292 292 292 293 293 292 293 292 292 292 293 292 292 291 292 292 292 292 292 292 292 292 292 293 293 294 295 295 294 295 295 295 294 294 293 293 293 293 293 292 292
292 292 291 291 292 292 292 292 293 292 293 293 293 293 292 291 291 292 292 292 292 292 292 292 292 292 292 292 292 292 292 291 291 291 291 291 291 292 291 290 291 291 291 292 292 292 293 294 293 294 295 295 295 294 294 293 293 293 292 292 292 292
291 291 291 291 292 292 292 292 291 292 292 292 292 291 291 291 291 291 291 291 291 292 292 292 292 292 292 292 292 292 291 291 291 291 291 291 291 290 290 291 291 291 291 291 291 291 292 292 293 294 294 294 294 295 294 293 293 292 292 292 292 292
292 292 292 291 291 291 291 291 291 291 291 291 290 290 291 291 291 291 291 291 291 291 291 291 291 291 291 291 291 291 291 291 290 291 291 290 290 290 290 290 290 290 290 290 290 291 291 291 292 293 294 294 294 294 294 293 292 292 292 291 291 292
291 291 290 290 291 290 290 290 290 290 290 290 290 290 290 290 290 290 290 291 291 291 291 291 291 291 291 291 290 290 290 290 290 290 291 290 290 290 290 290 290 290 290 290 290 290 291 292 292 293 293 293 294 294 293 292 292 291 291 291 291 291
291 290 290 291 290 289 289 290 290 289 289 289 289 289 289 289 289 290 290 290 290 290 291 290 290 290 290 290 290 289 289 290 290 289 290 289 290 290 290 290 289 289 290 290 290 290 290 291 292 292 292 293 293 294 292 291 290 290 290 290 290 291
291 291 290 289 290 289 290 290 290 289 289 288 289 289 289 289 289 289 289 289 289 290 290 290 289 289 289 289 289 288 289 289 289 289 289 288 289 289 289 289 289 290 290 289 289 289 289 290 291 291 292 292 293 292 291 290 290 289 289 289 290 290
290 290 290 288 288 289 289 289 289 288 287 288 289 288 289 288 288 288 288 288 288 289 289 289 289 288 288 288 288 288 289 289 289 289 289 288 288 288 289 289 289 289 289 288 288 288 288 289 289 290 291 291 292 291 290 290 289 288 288 288 289 289
289 288 288 288 288 289 289 289 288 287 288 288 288 288 287 286 286 287 287 287 287 288 288 288 288 288 288 287 288 288 288 288 288 288 289 288 288 288 289 288 288 288 289 289 288 287 288 288 288 290 291 291 292 291 290 289 288 287 287 287 288 288
288 288 288 288 288 289 289 288 287 287 287 287 287 285 285 285 285 286 286 286 286 286 286 287 287 287 287 287 288 288 288 288 288 288 288 288 288 288 288 288 288 288 288 288 288 289 289 288 289 289 290 291 291 292 290 289 288 287 287 287 287 287
288 288 288 288 289 289 288 288 287 287 286 285 283 282 283 282 283 283 283 283 283 284 285 286 286 286 287 288 287 287 287 287 287 287 287 287 287 287 287 287 287 287 287 288 288 288 288 289 288 289 290 291 291 292 291 289 288 288 287 287 287 287
287 287 287 288 288 288 288 287 284 283 282 281 279 280 281 281 281 281 281 281 282 283 284 284 286 286 287 287 286 286 286 286 286 286 286 286 286 286 285 286 286 286 286 287 287 287 288 288 287 288 289 290 291 291 291 289 289 289 288 288 288 288
285 285 286 287 287 288 288 284 281 280 280 279 278 279 280 279 279 279 279 280 281 282 283 283 284 285 286 286 285 285 284 283 283 283 284 284 283 283 283 284 284 284 285 285 286 286 287 287 287 287 288 288 290 290 291 291 290 291 289 288 287 288
284 284 285 287 288 288 286 281 280 279 278 278 279 279 279 278 279 279 278 279 279 281 281 281 282 283 284 284 284 284 282 280 281 281 281 281 281 281 281 281 282 283 283 283 284 284 284 285 286 286 286 287 288 290 290 291 291 291 289 289 288 288
282 284 285 287 287 287 285 281 279 279 278 278 279 278 278 278 278 278 277 277 278 279 279 279 280 280 281 282 283 282 280 279 279 279 279 279 279 279 279 280 281 282 282 281 281 280 281 283 284 285 285 286 286 288 289 290 290 290 290 288 287 288
280 281 282 284 286 285 285 282 280 279 278 279 279 278 278 277 277 276 276 276 277 278 278 277 278 278 279 280 281 281 280 279 278 278 278 278 278 278 278 279 280 280 279 278 278 278 280 281 282 282 283 285 285 286 287 288 287 286 286 286 287 287
277 277 278 280 284 282 282 283 282 280 279 279 278 278 277 277 276 275 275 275 276 276 276 276 276 277 277 278 279 279 279 279 278 277 277 277 277 276 277 277 278 277 277 277 277 278 278 278 280 281 282 284 284 284 284 284 284 285 286 286 286 286
276 276 276 277 279 279 280 280 280 281 280 279 278 278 276 275 275 274 274 274 275 274 275 275 276 276 275 276 277 277 277 278 277 276 276 275 275 274 274 275 276 275 275 276 276 277 277 278 279 280 281 281 281 281 281 282 284 284 283 282 283 284
277 277 277 276 277 277 277 277 278 279 280 278 277 277 275 274 274 274 273 273 273 273 274 274 274 274 274 274 274 275 276 276 276 276 276 276 276 276 275 274 275 276 276 276 276 276 276 277 277 278 281 281 282 281 281 280 278 278 278 280 284 283
276 277 277 277 277 276 276 276 276 276 278 277 276 275 273 273 273 272 271 272 271 272 272 272 272 272 273 272 272 273 273 277 278 277 275 274 276 277 278 277 275 275 276 276 276 278 276 275 276 279 279 279 281 281 281 280 281 281 280 282 283 282
275 276 275 274 275 275 276 276 276 275 277 276 275 274 273 272 271 271 270 270 270 270 271 271 270 271 271 271 271 271 271 271 273 275 276 276 275 276 276 277 277 278 279 277 274 275 277 278 278 278 278 279 279 279 279 278 279 280 280 281 279 277
274 273 272 272 273 273 274 274 274 275 276 275 274 273 272 270 270 269 268 268 269 269 270 270 270 270 270 269 269 269 269 269 269 270 273 275 275 275 275 276 277 277 276 276 275 274 273 275 276 277 277 276 276 275 277 278 278 279 280 280 281 277
273 272 270 271 271 272 272 272 273 275 274 274 272 271 270 269 268 267 267 267 268 268 268 268 268 268 268 268 267 267 268 268 267 267 268 270 273 274 274 275 275 274 273 274 275 276 275 274 274 275 276 274 274 276 274 277 279 279 280 281 278 276
272 270 269 269 270 270 270 271 273 273 272 271 270 269 268 267 267 266 266 266 266 266 266 267 267 267 267 267 267 267 267 267 267 267 267 267 267 269 271 271 271 270 271 272 273 272 271 273 274 273 272 273 273 275 278 278 276 278 279 278 275 276
270 268 268 269 269 269 270 270 272 270 270 268 268 266 266 266 265 265 265 266 266 266 266 266 266 266 266 266 266 266 266 266 267 267 267 266 266 266 265 264 266 268 269 267 267 269 271 272 273 274 274 273 275 274 274 274 270 269 269 270 270 271
268 267 267 267 267 268 268 271 270 268 268 267 266 265 264 264 263 263 263 264 264 264 264 264 265 265 265 265 265 266 266 266 265 265 265 265 265 264 263 263 264 265 266 265 265 267 269 270 269 269 270 271 271 271 272 266 265 266 266 267 268 269
Wind_Speed
5 5 5 5 5 5 5 5 5 5 5 5 5 7 7 7 6 5 6 5 5 5 6 6 6 6 7 7 7 6 6 7 7 7 8 7 6 7 7 6 6 6 6 6 7 7 8 8 8 8 8 8 9 8 9 8 8 8 9 9 8 9
5 5 5 6 6 5 5 5 5 5 5 5 5 6 6 6 6 6 7 6 6 7 5 5 5 6 7 7 7 7 8 8 7 7 6 9 6 7 7 7 7 7 8 7 8 8 8 8 8 8 8 8 9 9 8 9 8 10 11 10 8 7
5 5 5 5 5 5 5 4 4 5 5 5 5 6 7 6 6 6 6 6 6 6 7 7 6 7 7 6 7 8 9 8 8 8 8 5 7 7 7 7 8 8 8 8 8 9 9 8 9 8 8 8 10 9 10 9 9 10 10 9 10 9
5 5 5 4 4 4 5 4 3 4 5 5 5 5 5 6 6 5 6 5 5 6 7 6 6 7 6 7 8 8 9 8 8 8 5 7 9 6 8 8 8 7 8 8 9 9 9 9 10 9 8 9 10 10 8 9 10 11 11 9 11 10
4 4 5 5 5 4 4 4 4 4 4 5 5 4 6 5 6 5 5 5 5 6 6 6 6 6 6 7 7 7 8 8 7 5 6 8 8 6 7 8 8 8 7 8 9 9 9 9 9 9 9 10 11 11 10 9 10 11 12 11 12 11
4 4 4 4 5 5 5 5 5 4 4 4 5 5 5 5 5 5 5 5 6 6 6 7 7 7 7 7 7 7 7 7 7 6 7 8 7 8 7 7 8 7 8 8 9 9 9 9 9 9 9 11 11 11 12 11 11 11 12 12 12 11
4 4 4 4 4 4 5 5 5 5 5 5 5 5 5 5 5 5 5 5 6 7 7 7 7 7 7 7 7 8 8 7 7 6 7 7 7 7 7 7 6 7 8 9 10 10 9 10 10 10 11 10 10 11 12 11 11 11 12 12 13 12
4 4 4 4 5 4 5 5 5 5 5 5 4 5 5 6 4 4 5 5 6 7 8 7 7 7 7 7 7 7 7 7 6 7 6 5 7 7 6 7 7 7 9 9 10 9 10 9 10 11 11 11 11 11 11 11 11 11 12 12 12 12
4 4 4 4 4 5 5 5 6 5 5 6 6 5 5 6 5 5 5 6 6 7 7 7 7 7 7 7 7 7 6 6 6 6 7 6 6 6 7 7 7 7 8 9 9 9 10 10 10 11 11 11 11 11 11 12 11 12 11 11 12 12
3 5 5 5 5 6 7 6 7 6 6 7 7 6 6 5 6 6 7 7 7 6 7 7 6 6 7 6 6 6 7 7 7 7 6 5 6 7 7 8 8 8 7 8 8 9 8 9 10 11 11 11 11 11 11 11 11 12 12 12 12 12
4 5 5 5 6 6 6 6 6 6 7 6 5 5 6 6 6 7 7 7 7 7 7 7 6 6 6 6 6 7 7 7 6 6 6 6 7 7 7 7 8 8 9 8 8 8 8 9 10 10 10 10 10 10 11 11 12 12 12 12 12 13
5 5 6 7 7 8 7 6 7 7 8 7 6 7 6 7 7 7 8 7 7 7 7 8 7 7 7 7 7 7 7 7 7 7 6 7 7 7 7 7 8 8 8 9 9 8 8 9 9 13 17 14 10 9 9 9 10 11 11 12 13 13
5 6 5 5 5 5 5 5 6 6 6 6 7 7 7 6 7 7 7 8 7 7 7 7 7 8 8 7 7 7 7 8 8 7 7 8 7 8 8 8 8 8 8 8 8 9 9 9 10 16 16 16 17 13 11 11 11 10 11 11 13 13
5 5 4 5 5 5 5 5 5 5 6 7 7 7 7 7 7 7 8 8 8 8 8 8 8 8 9 8 9 9 8 8 8 8 8 8 9 9 7 8 8 8 8 8 7 8 9 10 13 17 17 17 17 15 12 10 10 11 11 12 13 13
4 4 5 5 5 6 5 5 5 6 6 7 7 7 7 7 7 7 7 7 7 8 8 8 9 9 10 10 10 10 9 9 9 9 9 10 9 8 8 9 9 9 8 8 8 9 10 10 14 17 17 17 17 17 15 10 10 11 12 13 14 14
3 3 4 4 5 5 5 5 5 5 6 7 7 7 7 7 8 7 7 7 8 8 8 9 10 10 10 10 10 10 11 11 11 10 9 8 9 8 9 8 9 9 8 8 8 9 9 10 13 16 17 17 17 17 15 11 12 12 13 14 14 13
3 4 4 5 5 5 5 5 5 6 7 7 7 7 8 7 7 8 8 10 10 10 11 11 11 11 11 11 11 11 11 11 11 11 10 10 10 10 11 11 11 11 10 10 9 9 10 10 15 17 18 17 17 18 15 11 11 11 12 12 13 14
5 5 4 4 5 5 5 6 6 7 6 6 6 7 8 8 9 10 11 12 12 13 13 12 12 12 12 12 11 11 12 12 12 12 11 10 10 9 9 9 8 11 11 11 10 10 11 10 15 17 17 18 17 18 11 10 11 11 11 12 12 13
5 5 5 6 5 6 7 6 7 6 6 7 8 8 8 10 12 13 13 13 14 14 13 13 13 13 12 12 12 13 13 13 13 12 10 11 10 10 11 10 10 9 10 11 10 11 12 11 13 17 18 18 20 16 11 10 10 10 11 12 12 11
7 7 7 6 7 8 7 6 7 7 7 8 8 10 11 12 13 13 13 12 13 13 13 13 13 13 13 12 13 13 12 12 11 12 11 11 12 12 12 12 11 10 9 11 11 10 12 12 13 17 18 18 18 16 12 11 10 12 11 12 12 10
8 7 8 9 10 9 8 8 8 8 9 8 10 11 12 12 12 13 13 13 12 12 12 11 11 12 12 12 12 11 12 12 12 11 11 11 11 12 11 11 11 12 11 10 11 13 13 12 12 14 16 17 17 15 10 10 9 11 12 11 12 10
8 10 11 11 10 9 9 8 7 9 10 11 11 12 13 14 14 13 12 12 12 12 12 11 11 11 11 12 11 11 11 11 11 11 12 12 10 11 11 11 11 12 11 10 11 11 11 12 12 11 16 17 18 18 13 10 10 12 13 12 11 12
10 11 11 9 9 8 8 8 9 11 11 11 13 14 13 13 13 13 12 12 12 12 12 11 11 12 11 10 11 11 10 10 10 11 11 12 11 11 11 12 12 12 11 10 10 10 11 10 13 14 16 17 18 19 16 11 12 12 12 14 14 11
10 11 10 9 10 10 9 9 11 12 12 12 14 13 12 12 12 12 11 12 12 11 11 12 12 10 10 10 11 11 10 10 11 11 12 11 11 12 13 13 12 12 12 10 10 10 11 11 14 13 15 17 18 19 20 13 12 13 13 15 15 14
10 10 9 8 8 8 8 10 11 11 11 13 13 11 12 12 11 11 11 11 12 11 12 12 13 12 10 11 12 11 11 11 12 13 12 13 14 14 15 14 13 13 13 13 10 9 11 12 12 15 15 18 20 22 22 23 18 19 15 13 16 16
9 10 9 8 9 9 9 10 11 10 11 12 10 10 11 11 11 11 12 11 11 11 11 12 13 12 11 12 12 10 11 13 13 12 11 13 14 14 15 13 13 13 13 14 13 11 10 12 13 14 18 18 21 22 23 23 23 22 15 14 14 15
10 10 10 10 11 11 9 9 10 11 11 9 10 11 11 12 11 11 12 12 12 12 11 12 12 13 12 13 11 10 11 11 11 11 11 12 12 13 13 13 12 12 12 14 14 14 13 11 11 13 15 20 20 21 21 21 21 22 23 18 16 16
12 13 13 12 12 13 11 8 9 11 9 8 9 10 11 11 12 13 13 12 12 12 12 13 13 13 14 14 12 11 10 11 11 11 11 10 10 11 13 14 13 13 13 14 14 16 14 13 12 12 13 12 14 15 17 21 24 26 26 24 21 25
12 13 14 13 12 13 12 13 10 8 8 9 9 9 9 10 11 12 12 14 13 13 13 14 13 13 13 13 13 12 11 11 10 11 11 10 11 13 13 15 13 14 13 15 15 14 15 16 13 12 11 10 10 11 15 17 17 21 21 16 14 17
12 12 12 13 14 14 13 12 12 12 10 9 9 9 10 11 11 12 12 14 12 12 13 12 15 16 14 14 13 13 13 11 10 10 11 12 12 13 15 15 14 14 14 14 15 16 17 15 12 10 10 11 14 16 16 16 14 13 14 17 18 17
11 12 11 12 12 13 13 14 14 14 13 8 9 9 10 11 11 12 12 13 13 13 12 12 13 14 13 13 13 12 12 12 13 13 13 9 8 11 15 16 17 14 12 11 14 17 17 16 15 11 15 20 24 22 19 16 18 19 19 20 25 22
12 11 11 11 13 12 13 13 14 14 13 8 9 10 11 12 12 12 12 12 12 13 13 14 14 12 12 13 14 14 14 13 15 16 14 16 19 20 23 21 18 19 19 17 15 11 15 17 21 34 41 36 32 31 33 33 35 33 29 28 32 24
11 12 13 14 14 13 12 13 13 13 10 8 10 11 12 13 12 12 12 13 12 15 16 14 12 11 12 12 12 14 15 16 15 16 22 19 20 24 29 30 31 31 27 20 20 22 30 34 36 37 36 37 36 37 36 38 36 37 36 36 26 20
11 12 13 13 12 14 12 12 13 12 9 11 11 13 12 14 13 13 13 13 14 16 15 11 12 13 13 13 13 14 14 15 17 18 14 14 17 17 26 32 32 28 28 33 30 25 20 27 35 41 38 37 39 41 41 40 40 37 37 36 35 22
9 10 11 11 12 11 12 12 12 10 11 12 14 14 15 15 14 14 14 14 15 14 15 13 12 12 12 14 14 12 12 13 14 15 18 17 15 17 20 22 23 28 33 34 31 30 28 32 36 40 40 40 39 39 39 41 42 40 39 38 22 14
8 10 11 11 12 12 11 11 11 11 12 13 15 14 15 14 14 14 13 13 15 14 13 12 12 12 13 13 12 12 13 13 12 14 15 18 19 18 13 8 11 20 26 25 29 37 39 36 33 33 33 35 39 41 39 37 31 35 34 27 19 16
8 10 11 12 11 10 11 11 9 12 13 15 15 15 15 15 15 14 17 23 18 12 12 13 13 13 14 14 13 13 12 12 13 15 15 14 16 18 18 19 17 16 16 20 24 31 35 34 32 32 35 37 36 39 43 43 25 20 16 17 13 14
8 10 10 11 10 10 11 9 11 13 14 15 16 17 16 15 14 13 12 12 14 13 14 12 12 13 13 13 13 14 15 15 15 16 16 17 16 15 16 15 13 15 21 33 31 29 26 30 38 41 42 39 40 37 36 22 20 18 17 15 16 15
Wind_Direction
317 317 314 311 309 304 301 303 307 308 299 284 271 275 272 273 276 276 279 266 255 243 241 236 238 236 237 238 240 239 237 240 236 232 234 243 239 236 237 230 230 226 228 223 230 227 228 225 222 217 220 215 225 227 232 228 219 224 230 228 218 226
311 313 315 316 315 312 304 300 305 305 294 292 286 281 283 288 284 278 272 268 266 269 266 258 245 243 237 236 234 238 236 239 235 237 241 236 235 235 231 230 226 226 229 228 228 232 232 232 229 220 220 217 223 225 230 232 222 228 232 235 223 224
309 308 304 298 299 300 299 294 288 284 294 292 285 284 293 293 288 287 277 277 271 267 263 261 256 252 247 247 234 236 241 242 237 237 237 244 240 231 235 231 230 227 226 227 226 228 230 229 232 224 223 223 228 227 228 231 225 230 237 233 236 228
306 308 311 306 308 303 306 301 310 314 304 287 286 289 288 291 296 289 288 287 280 275 275 271 262 255 249 243 241 240 244 243 240 239 242 237 245 227 236 234 233 231 229 229 232 230 230 229 229 225 218 225 230 234 227 231 228 233 238 231 238 233
285 288 295 301 306 303 307 314 316 298 294 299 293 288 290 284 282 289 289 292 297 291 287 286 281 274 266 256 253 249 250 252 254 248 242 247 251 243 236 241 238 236 231 234 236 235 236 233 233 228 222 226 227 231 232 227 228 232 236 235 236 235
294 305 309 312 318 327 330 327 320 311 305 298 304 307 299 306 301 298 304 302 298 294 296 292 286 285 281 275 271 266 263 260 257 245 242 247 249 250 246 240 245 240 236 237 240 236 238 239 239 237 230 230 228 230 234 230 227 230 234 237 240 237
317 301 292 302 315 328 335 335 326 321 316 313 314 312 307 307 306 315 309 306 304 303 300 295 293 289 286 280 280 277 278 275 269 261 251 253 255 252 253 253 241 243 239 240 241 242 240 240 240 241 240 236 233 233 235 234 231 231 233 235 237 237
292 314 328 335 338 339 336 329 320 313 316 319 314 322 327 323 329 322 317 311 309 306 305 302 301 297 292 291 290 285 283 282 277 271 265 251 257 260 252 250 249 239 243 243 246 246 246 245 242 242 243 241 239 237 238 239 237 237 237 237 237 235
312 314 327 329 336 342 343 337 330 329 343 354 356 347 343 327 338 338 333 317 307 304 305 306 303 299 298 297 292 294 298 295 289 283 277 270 261 263 264 257 254 249 244 248 248 247 247 248 246 246 244 243 240 239 240 241 241 241 240 241 241 238
332 344 340 351 357 4 5 356 346 346 2 355 348 349 352 348 354 340 327 319 315 313 310 307 301 301 298 298 298 297 295 294 293 286 281 282 278 271 265 264 261 260 252 253 252 252 250 250 252 251 248 245 244 243 242 241 243 244 243 244 243 241
346 351 3 7 12 11 2 355 352 353 351 345 342 351 346 349 343 327 320 320 321 318 315 313 311 306 306 305 304 303 299 296 293 291 288 284 277 271 265 265 266 270 267 264 260 261 255 253 253 252 251 249 249 245 246 244 243 243 247 246 246 244
9 14 20 16 10 2 359 359 355 348 341 338 345 349 339 350 334 326 324 324 321 319 319 317 315 314 314 316 310 305 304 303 301 298 296 290 281 277 275 275 271 266 266 269 268 263 261 259 258 257 253 249 250 251 249 249 246 246 247 250 251 251
26 31 29 13 1 353 358 352 342 339 337 341 346 342 335 343 331 328 327 325 323 323 321 323 318 320 320 315 314 311 312 309 308 307 302 298 293 288 286 281 280 277 272 269 268 270 267 265 265 264 263 261 255 254 258 255 257 252 252 251 252 254
34 29 10 356 353 3 356 348 342 344 343 341 340 337 337 340 333 331 330 325 327 330 330 327 324 324 320 322 319 317 313 313 313 312 307 305 303 299 297 295 285 284 283 279 275 271 272 272 271 270 271 269 267 261 259 259 259 257 257 257 256 256
27 13 358 356 2 359 345 350 352 347 344 342 336 342 339 336 334 333 332 330 334 336 336 338 339 334 332 331 328 325 326 324 321 318 318 313 306 305 306 300 299 294 290 284 282 279 276 277 277 279 278 276 273 270 265 263 256 257 256 256 257 257
9 2 358 2 356 345 348 352 351 343 345 345 343 343 340 339 336 337 335 341 344 346 346 345 341 337 333 332 331 331 330 329 326 323 319 315 315 314 310 307 303 300 296 291 286 284 282 279 285 284 283 282 279 275 271 265 262 259 258 256 255 257
11 12 4 1 356 347 356 350 357 1 356 351 348 345 344 342 338 346 353 353 351 351 349 347 342 338 336 335 334 332 329 328 327 328 328 326 323 322 320 319 317 310 305 301 295 292 290 288 290 290 289 289 285 281 275 270 267 265 263 260 258 259
23 12 4 352 353 346 5 4 4 8 350 346 354 352 347 354 2 4 3 357 355 352 347 345 342 340 338 335 336 335 332 332 331 328 327 325 319 313 309 306 305 303 305 303 303 301 295 293 292 293 294 294 293 290 284 276 270 269 267 265 263 261
16 2 7 352 357 16 13 8 10 1 354 3 0 357 5 15 15 10 4 358 351 346 344 343 340 338 337 337 337 336 333 332 331 328 328 322 319 317 316 311 308 307 305 306 305 302 298 297 297 297 296 296 295 296 289 283 278 272 270 270 267 265
16 5 19 17 22 19 8 11 8 4 15 11 5 19 24 22 14 4 356 349 344 341 340 339 338 336 335 336 335 333 330 329 327 327 327 325 322 321 318 315 313 311 308 305 303 300 299 299 298 297 296 295 293 290 289 286 284 280 278 277 272 267
14 17 23 27 21 7 11 15 12 24 20 16 28 27 22 15 5 357 350 343 338 335 335 333 333 332 332 331 331 330 330 330 328 322 322 321 319 315 315 314 313 313 311 309 303 302 298 297 300 299 297 298 299 299 294 290 286 287 284 282 283 275
27 25 29 25 12 2 15 14 23 29 28 33 30 25 17 8 360 351 344 338 335 334 332 331 329 329 329 328 327 331 329 324 322 324 322 319 317 314 314 312 311 309 308 308 306 306 305 304 303 303 302 303 304 305 304 299 297 295 294 291 288 292
31 29 24 16 6 16 17 18 33 36 33 31 27 20 12 2 354 349 343 337 334 332 331 330 328 327 326 328 330 326 323 323 324 322 322 319 316 314 313 313 311 308 307 308 307 304 305 304 304 306 304 303 303 303 304 302 298 296 295 297 295 290
30 27 16 7 14 22 20 32 42 35 33 32 25 13 4 357 353 345 341 337 334 332 331 331 329 327 328 333 330 327 326 329 328 325 323 319 319 320 318 318 315 314 313 313 312 310 307 307 304 304 307 306 306 305 303 300 294 292 295 297 295 293
29 23 11 6 22 24 28 46 42 36 31 31 17 3 1 354 349 343 341 338 336 337 337 337 335 331 334 331 327 324 329 334 332 329 329 328 329 327 325 324 323 320 318 316 315 317 316 315 314 310 311 313 314 311 308 303 300 298 297 292 292 294
21 19 7 10 26 23 39 47 41 34 33 22 9 1 360 355 351 347 345 342 339 338 341 340 336 334 333 330 325 327 334 336 334 332 333 334 330 328 324 324 322 318 316 317 316 317 317 316 312 311 311 310 309 308 305 303 304 304 302 297 294 296
12 14 9 10 27 20 41 44 38 27 24 11 5 4 360 353 350 350 346 343 339 339 339 337 337 336 333 330 326 328 332 329 331 328 330 329 325 323 321 318 318 315 316 317 315 314 313 312 311 308 309 308 306 304 304 304 305 308 309 305 298 294
16 15 10 8 24 21 19 29 27 23 8 4 6 1 360 353 353 352 346 342 338 339 338 338 337 337 334 331 329 325 324 324 324 324 324 324 321 321 318 319 317 317 317 314 313 311 310 311 307 303 302 301 300 300 306 311 310 305 299 295 292 291
19 17 12 8 18 17 6 7 4 9 1 3 1 0 358 355 353 349 345 345 341 340 340 339 336 333 331 330 326 322 320 322 322 321 320 321 322 321 318 314 313 312 312 311 309 308 309 306 306 305 303 305 310 314 312 308 302 297 295 296 300 301
15 12 11 10 9 6 360 358 356 352 353 355 1 359 359 355 354 348 344 341 339 337 335 334 330 331 329 327 325 322 318 316 317 316 316 323 327 324 316 311 308 310 309 310 310 308 305 299 297 303 312 317 314 308 307 302 302 312 314 306 301 296
10 6 8 9 6 2 355 354 351 347 343 1 4 1 359 352 348 346 344 341 339 335 334 330 330 328 324 321 321 318 319 320 319 317 309 305 314 313 310 312 308 305 304 303 305 305 302 307 307 308 312 306 305 303 305 310 311 305 299 289 289 295
5 5 3 6 1 358 350 352 346 344 344 15 4 3 359 351 346 344 345 341 337 331 331 331 328 325 323 324 323 323 316 308 306 307 306 308 308 302 301 305 305 304 306 304 296 300 310 314 311 310 310 308 305 306 306 303 301 298 295 294 295 295
359 9 9 5 354 352 345 346 340 338 353 19 4 4 359 354 349 345 342 340 336 333 329 327 322 322 321 321 322 317 315 312 306 297 298 293 293 303 308 307 303 301 304 315 318 313 307 305 305 306 307 311 315 313 310 306 301 299 298 298 298 292
360 10 7 353 352 344 345 339 336 338 11 7 9 3 1 355 352 345 339 335 331 329 327 321 319 317 319 317 316 314 314 311 310 308 297 291 294 295 303 305 305 313 322 317 309 308 310 314 314 312 311 311 313 310 308 308 306 301 298 295 293 288
359 6 354 349 342 339 341 336 330 355 17 10 9 1 359 352 349 340 334 329 327 322 320 318 317 317 316 316 315 313 310 309 312 311 314 313 302 289 294 300 312 317 314 310 309 312 315 314 310 309 311 311 310 313 310 307 306 305 303 301 295 276
358 1 347 342 338 342 338 337 337 18 14 14 0 0 351 346 342 334 328 325 323 321 318 320 319 317 316 314 312 310 311 309 309 308 311 312 314 315 309 290 294 306 305 310 321 320 313 307 307 309 311 313 310 309 317 324 323 323 321 324 323 322
359 350 344 342 337 335 342 331 10 22 12 3 358 353 346 341 336 330 325 325 326 322 322 321 319 318 316 317 315 313 311 311 313 313 312 312 316 318 316 318 318 315 315 322 316 309 307 307 311 320 322 318 322 326 322 319 318 320 322 320 306 306
356 347 342 342 336 340 333 345 18 19 7 358 355 347 340 335 331 328 325 325 328 328 324 320 318 318 317 317 316 317 316 318 319 320 319 318 313 309 310 309 312 319 324 319 311 306 311 331 334 324 317 319 324 324 326 321 315 311 315 321 317 309